Check out our new Dash Board

Active alerts


No alerts


Thunder radar  blitzortung!


Rain radar more information rain snow radar


Visit our other weather sites:

Template documentation
and downloads

And another site



Weather Underground History page Text

Daily Summary for Nil La, TWC- Units:  Metric    English   Both
« Previous Day
Next Day »
Daily Weekly Monthly Yearly Custom
  High: Low: Average:
Temperature: -17.8 °C 20.2 °C 19.6 °C
Dew Point: -17.8 °C 19.3 °C 18.9 °C
Humidity: Humidity % 94 % 94 %
Wind Speed: 0 km/h 0 km/h 0.3 km/h
Wind Gust: 0 km/h - -
Wind:- - South
Pressure: 0 hPa 1016.1 hPa -
Precipitation: 0 mm    
Historical Graphs
 
 
Tabular Data for Nil La, TWC-
Time Temperature Dew Point Pressure Wind Wind Speed Wind Gust Humidity Rainfall Rate (Hourly)
-17.8 °C -17.8 °C 0 hPa Calm     Humidity % 0 mm
00:04 20.3 °C 19.5 °C 1017.8 hPa Calm   3.2 km/h 95 % 0 mm
00:09 20.3 °C 19.5 °C 1017.8 hPa Calm     95 % 0 mm
00:14 20.2 °C 19.4 °C 1017.8 hPa Calm     95 % 0 mm
00:19 20.2 °C 19.4 °C 1017.8 hPa Calm     95 % 0 mm
00:24 20.2 °C 19.4 °C 1017.8 hPa Calm     95 % 0 mm
00:29 20.2 °C 19.4 °C 1017.8 hPa Calm     95 % 0 mm
00:34 20.2 °C 19.5 °C 1017.8 hPa Calm     96 % 0 mm
00:39 20.2 °C 19.5 °C 1017.8 hPa Calm     96 % 0 mm
00:44 20.2 °C 19.5 °C 1017.8 hPa Calm     96 % 0 mm
00:49 20.2 °C 19.5 °C 1017.8 hPa Calm     96 % 0 mm
00:54 20.2 °C 19.5 °C 1017.8 hPa Calm     96 % 0 mm
00:59 20.2 °C 19.5 °C 1017.8 hPa Calm     96 % 0 mm
01:04 20.2 °C 19.5 °C 1017.8 hPa Calm     96 % 0 mm
01:09 20.2 °C 19.5 °C 1017.8 hPa Calm     96 % 0 mm
01:14 20.2 °C 19.5 °C 1017.8 hPa Calm     96 % 0 mm
01:19 20.2 °C 19.5 °C 1017.8 hPa Calm     96 % 0 mm
01:24 20.2 °C 19.5 °C 1017.8 hPa SSW 1.6 km/h   96 % 0 mm
01:29 20.3 °C 19.6 °C 1017.8 hPa Calm   3.2 km/h 96 % 0 mm
01:34 20.3 °C 19.6 °C 1017.8 hPa Calm   8 km/h 96 % 0 mm
01:39 20.4 °C 19.7 °C 1017.8 hPa Calm   12.9 km/h 96 % 0 mm
01:44 20.4 °C 19.7 °C 1017.8 hPa Calm   12.9 km/h 96 % 0 mm
01:49 20.4 °C 19.6 °C 1017.8 hPa Calm   12.9 km/h 95 % 0 mm
01:54 20.5 °C 19.7 °C 1017.5 hPa Calm   9.7 km/h 95 % 0 mm
01:59 20.5 °C 19.7 °C 1017.5 hPa Calm   9.7 km/h 95 % 0 mm
02:04 20.5 °C 19.7 °C 1017.5 hPa Calm   9.7 km/h 95 % 0 mm
02:09 20.5 °C 19.7 °C 1017.5 hPa Calm   6.4 km/h 95 % 0 mm
02:14 20.5 °C 19.7 °C 1017.5 hPa Calm   9.7 km/h 95 % 0 mm
02:19 20.6 °C 19.8 °C 1017.2 hPa Calm   9.7 km/h 95 % 0 mm
02:24 20.6 °C 19.8 °C 1017.2 hPa Calm   11.3 km/h 95 % 0 mm
02:29 20.5 °C 19.7 °C 1017.2 hPa Calm   11.3 km/h 95 % 0 mm
02:34 20.6 °C 19.8 °C 1017.2 hPa Calm   11.3 km/h 95 % 0 mm
02:39 20.5 °C 19.7 °C 1016.8 hPa Calm   6.4 km/h 95 % 0 mm
02:44 20.5 °C 19.7 °C 1016.8 hPa Calm   4.8 km/h 95 % 0 mm
02:49 20.5 °C 19.7 °C 1016.8 hPa Calm   6.4 km/h 95 % 0 mm
02:54 20.5 °C 19.7 °C 1016.8 hPa SSW 1.6 km/h 6.4 km/h 95 % 0 mm
02:59 20.4 °C 19.6 °C 1016.5 hPa Calm   9.7 km/h 95 % 0 mm
03:04 20.4 °C 19.6 °C 1016.8 hPa SE 1.6 km/h 9.7 km/h 95 % 0 mm
03:09 20.4 °C 19.6 °C 1016.5 hPa Calm   9.7 km/h 95 % 0 mm
03:14 20.4 °C 19.6 °C 1016.5 hPa Calm   11.3 km/h 95 % 0 mm
03:19 20.4 °C 19.6 °C 1016.1 hPa SSE 4.8 km/h 11.3 km/h 95 % 0 mm
03:24 20.4 °C 19.4 °C 1016.1 hPa South 4.8 km/h 16.1 km/h 94 % 0 mm
03:29 20.4 °C 19.4 °C 1016.1 hPa Calm   16.1 km/h 94 % 0 mm
03:34 20.3 °C 19.3 °C 1016.1 hPa Calm   17.7 km/h 94 % 0 mm
03:39 20.3 °C 19.3 °C 1016.1 hPa Calm   17.7 km/h 94 % 0 mm
03:44 20.3 °C 19.3 °C 1016.1 hPa Calm   17.7 km/h 94 % 0 mm
03:49 20.2 °C 19.4 °C 1016.1 hPa Calm   6.4 km/h 95 % 0 mm
03:54 20.2 °C 19.4 °C 1016.1 hPa Calm   3.2 km/h 95 % 0 mm
03:59 20.2 °C 19.4 °C 1016.1 hPa Calm   12.9 km/h 95 % 0 mm
04:04 20.2 °C 19.4 °C 1016.1 hPa Calm   12.9 km/h 95 % 0 mm
04:09 20.3 °C 19.5 °C 1016.1 hPa Calm   12.9 km/h 95 % 0 mm
04:14 20.3 °C 19.6 °C 1016.1 hPa Calm   6.4 km/h 96 % 0 mm
04:19 20.3 °C 19.6 °C 1016.1 hPa South 6.4 km/h 6.4 km/h 96 % 0 mm
04:24 20.4 °C 19.7 °C 1016.1 hPa Calm   14.5 km/h 96 % 0 mm
Spring, Texas: Villages of Bridgestone
Compliments of Weather Underground - 1.5 mb

Script developed by  Jim McMurry - jmcmurry@mwt.net Adapted for the template by  Wim van der Kuil - Leuven-Template.eu

You find our weather info also at:

UK Metoffice

WeatherCloud

Weather Underground

Mid-South Weather Network

AWEKAS

Citizen Weather Observer Program (CWOP)

HAMweather, WeatherForYou, PWS Weather

Equipment we use:

Weather-station
Davis Vantage Vue

Weather-program
Meteohub

Weather-server
Debian 7.9 x86 (Guest)

Provider
DreamHost

Davis Vantage Vue

Meteohub

Debian 7.9 x86 (Guest)

DreamHost